Location: St. Louis
(38.6270°N, 90.1994°W)
Time: 13:48:33
(UTC-06:00)

deb Explorer IX - Pass Details

Date: 01 December 2021
Orbit: 544 x 1082 km, 38.8° (Epoch: 16 January)

Event Time Altitude Azimuth Distance (km) Brightness Sun altitude
Rises 12:01:01 0° 254° (WSW) 2,859 ? 29.4°
Reaches altitude 10° 12:03:24 10° 252° (WSW) 1,899 ? 29.4°
Maximum altitude 12:07:41 75° 168° (SSE) 576 ? 29.3°
Drops below altitude 10° 12:11:45 10° 83° (E) 1,803 ? 29.2°
Sets 12:13:58 0° 81° (E) 2,701 ? 29.2°
